www.pogodaiklimat.ru

АРХИВ ПОГОДЫ в Мидленде

Время (UTC), дата Ветер
(напр.,м/с)
 
Видим.   Явления Облачность Т
(С)
Тd
(С)
f
(%)
Тe
(С)
Тes
(С)
Комфортность

P
(гПа)

Po
(гПа)
Тmin
(С)
Tmax
(С)
R
(мм)
SD
(см)
10:43 24.02 штиль  5 км  дымка  ясно  +7.2  +6.1  93  +6  +6      910.1         
10:53 24.02 штиль  5 км  дымка  ясно  +6.1  +5.0  93  +5  +5    1008.6  910.1         
11:04 24.02 штиль  3 км  дымка  2/2 120 м  +6.1  +5.0  93  +5  +5      910.1         
11:06 24.02 штиль  1 км  дымка  ?/?  +6.7  +5.0  89  +6  +6      910.1         
11:14 24.02 штиль  400 м  туман  ?/?  +5.6  +4.4  92  +5  +5      910.1         
11:42 24.02 штиль  400 м  туман  ?/?  +4.4  +3.3  93  +3  +3      910.1         
11:53 24.02 СЗ  400 м  туман  ?/?  +3.0  +2.0  93  0  0    1008.7  910.1  +3.3       
12:53 24.02 СЗ  400 м  туман  ?/?  +3.9  +2.8  93  -0  -0    1009.4  910.4         
13:50 24.02 С  400 м  туман  ?/?  +4.0  +3.0  93  +2  +2      911.3         
13:53 24.02 С  400 м  туман  ?/?  +3.9  +2.8  93  +1  +1    1010.5  911.3         
14:53 24.02 С  1 км  дымка  8/8 60 м  +6.1  +5.0  93  +2  +2    1011.8  912.6         
14:58 24.02 С  3 км  дымка  8/8 60 м  +6.7  +5.6  93  +3  +3      912.9         
15:03 24.02 С  8 км  дымка  5/5 60 м  +7.2  +5.6  90  +4  +5      912.9         
15:53 24.02 С  6
{9} 
16 км    ясно  +15.6  +1.1  37  +14  +15    1012.0  913.5         
16:03 24.02 С  16 км    ясно  +14.4  +3.3  47  +12  +14      913.8         
16:53 24.02 СЗ  16 км    ясно  +15.6  -1.7  30  +14  +15    1012.6  914.1         
17:53 24.02 СЗ  16 км    ясно  +17.2  -6.7  19  +16  +18    1012.2  913.8    +17.2     
18:53 24.02 СЗ  6
{11} 
16 км    ясно  +18.3  -8.3  16  +18  +21    1011.9  913.5         
19:53 24.02 З   9
{14} 
16 км    ясно  +21.0  -10.0  12  +19  +20    1010.4  912.6         
20:53 24.02 З   14
{18} 
16 км    2/2 570 м  +21.1  -12.8  +20  +20      912.0         
21:04 24.02 З   14
{18} 
11 км  пыль  2/2 570 м  +21.0  -13.0  +19  +19      912.0         
21:53 24.02 ЮЗ  16
{18} 
13 км  пыль  5/5 1050 м  +20.0  -14.4  +18  +18      912.3         
22:53 24.02 З   10  14 км  пыль  5/5 1260 м  +18.9  -14.4  +17  +17    1011.3  912.6         
22:56 24.02 З   9
{13} 
14 км  пыль  ясно  +19.4  -14.4  +18  +18      912.9         
23:53 24.02 З   7
{12} 
16 км  пыль  ясно  +18.3  -16.1  +17  +18      913.2  +17.8  +21.7     
00:53 25.02 З  16 км  пыль  ясно  +14.4  -17.8  +14  +14    1012.9  913.5         
01:53 25.02 СЗ  16 км  пыль  ясно  +10.0  -16.7  14  +8  +8    1014.4  914.4         
02:53 25.02 СЗ  16 км  пыль  ясно  +9.4  -14.4  17  +8  +8    1015.0  915.0         
03:53 25.02 СЗ  14 км  пыль  ясно  +7.2  -11.7  25  +5  +5    1014.5  915.3         
04:53 25.02 С  13 км  пыль  ясно  +3.9  -11.7  31  0  0    1014.6  915.0         
05:53 25.02 штиль  16 км  пыль  ясно  +3.0  -12.0  32  +3  +3    1014.4  915.0  +2.8       
06:53 25.02 ЮЗ  16 км  пыль  ясно  +3.3  -11.7  32  +1  +1    1014.6  915.3         
07:53 25.02 ЮЗ  16 км  пыль  ясно  +2.2  -12.2  34  -1  -1    1015.0  915.9         
08:53 25.02 ЮЗ  16 км  пыль  ясно  -1.0  -12.0  43  -5  -5    1014.9  915.6         
09:53 25.02 ЮЗ  16 км  пыль  ясно  +1.7  -11.7  36  0  0    1014.2  915.0         
10:53 25.02 З  16 км  пыль  ясно  -1.1  -11.7  44  -3  -3    1014.3  914.7         
11:53 25.02 Ю  16 км    ясно  0.0  -12.2  39  -3  -3    1014.3  914.7    +5.0     
12:53 25.02 штиль  16 км    ясно  -1.1  -12.2  43  -1  -1    1015.4  915.3         
13:53 25.02 Ю  16 км    ясно  0.0  -12.2  39  -3  -3    1016.1  915.6         
14:53 25.02 З  16 км    ясно  +7.8  -13.3  21  +6  +6    1015.8  916.2         
15:53 25.02 ЮЗ  16 км    ясно  +12.8  -16.1  12  +11  +12    1016.0  916.5         
16:53 25.02 З  16 км    ясно  +16.7  -15.6  10  +16  +17    1015.9  916.5         
17:53 25.02 З  8
{13} 
16 км    ясно  +19.0  -14.0  +18  +19    1015.3  915.9  -1.7  +18.9     
18:53 25.02 З   10
{13} 
16 км    ясно  +20.6  -15.6  +19  +19    1014.2  915.0         
19:53 25.02 З  10
{14} 
16 км    ясно  +22.0  -17.0  +20  +20    1013.1  914.1         
20:53 25.02 З  9
{13} 
16 км    ясно  +22.0  -21.0  +19  +20    1012.7  913.8         
21:53 25.02 З  7
{12} 
16 км    ясно  +22.0  -18.0  +20  +21    1012.8  913.8         
22:53 25.02 З  16 км    ясно  +22.0  -18.0  +20  +21    1013.3  914.1         

 

Местоположение метеостанции Midland International Airport: широта 31.9478 долгота -102.2086 высота над уровнем моря 875 м.

В архиве по умолчанию представлена погода в Мидленде за последние 1-2 суток. Обновление информации о фактической погоде в базе происходит ежечасно! Архивные данные за месяц целиком и за предыдущие месяцы Вы можете получить, выбрав интересующий диапазон дат из раскрывающегося списка и нажав кнопку "Ввод!".

Внимание! Архив погоды МЕТАР в базе сайта в настоящее время начинается c 1 января 2013 г. Нет смысла пытаться выбрать более раннюю дату.

Внимание! Время в таблицах - всемирное. Для получения местного времени необходимо прибавить поправку, которая в Мидленде равна -6 ч.

Ветер - указаны скорость ветра в м/с и направление, откуда дует ветер: С - северный, СВ - северо-восточный, В - восточный, ЮВ - юго-восточный, Ю - южный, ЮЗ - юго-западный, З - западный, СЗ - северо-западный.
Видимость - горизонтальная дальность видимости в метрах или километрах. При видимости от 1 до 10 км при отсутствии осадков обычно наблюдается дымка, при ухудшении видимости до 1 км и менее - туман. В сухую погоду видимость может ухудшаться дымом, пылью или мглою.
Атмосферные явления - указаны явления, наблюдавшиеся в указанный момент времени.
Облачность - указаны через наклонную черту верхняя и нижняя облачность в баллах и высота нижней границы облаков в метрах. Внимание: облачность, как и прочие метеорологические величины в США измеряются автоматическими метеостанциями. Указанные значения в баллах носят условный характер и показывают процент времени, в течение которого, в среднем, лазерный луч высотомера отражался от облаков обратно.
T - Температура воздуха - температура, измеренная на высоте 2 м над землей.
Td - Температура точки росы - температура, при понижении до которой содержащийся в воздухе водяной пар достигнет насыщения.
f - Относительная влажность воздуха - влажноcть воздуха, измеренная на высоте 2 м над землей.
Te - Эффективная температура - температура, которую ощущает одетый по сезону человек в тени. Характеристика душности погоды. При расчете учитывается влияние влажности воздуха и скорости ветра на теплоощущения человека.
Tes - Эффективная температура на солнце - температура, которую ощущает человек, с поправкой на солнечный нагрев. Характеристика знойности погоды. Зависит от высоты солнца над горизонтом, облачности и скорости ветра. Ночью, в пасмурную погоду, а также при ветре 12 м/с и более поправка равна нулю.
P - Атмосферное давление - приведенное к уровню моря атмосферное давление.
Po - Атмосферное давление - измеренное на уровне метеостанции атмосферное давление.
Tmin - Минимальная температура - минимум температуры воздуха на высоте 2 м над землей.
Tmax - Максимальная температура - максимум температуры воздуха на высоте 2 м над землей.
R - Количество осадков - Количество выпавших осадков за 3 или 6 часов, мм.
SD - Снежный покров - Высота снежного покрова, см.